Total_Precipitation_Accumulation
0.12 0.19 0.23 0.28 0.24 0.17 0.14 0.15 0.24 0.32 0.47 0.59 0.58 0.69 0.96 0.82 0.72 0.64 0.63 0.54 0.51 0.58 0.70 0.77 0.79 0.77 0.87 1.02 1.16 1.29 1.41 1.55 1.79 2.05 1.90 1.65 1.59 1.56 1.53 1.63 1.76 2.04 2.17 2.23
0.12 0.16 0.20 0.24 0.26 0.19 0.16 0.16 0.15 0.26 0.45 0.55 0.64 0.67 0.76 0.76 0.79 0.77 0.71 0.68 0.68 0.80 0.83 0.85 0.88 0.84 0.83 0.86 0.96 1.16 1.31 1.44 1.61 1.74 1.60 1.43 1.32 1.35 1.39 1.49 1.66 1.83 1.96 2.08
0.21 0.19 0.22 0.28 0.26 0.23 0.20 0.26 0.26 0.34 0.46 0.52 0.72 0.67 0.68 0.81 0.88 0.83 0.69 0.74 0.76 0.80 0.90 0.85 0.83 0.84 0.84 0.86 1.02 1.23 1.28 1.33 1.46 1.58 1.59 1.49 1.33 1.33 1.39 1.48 1.63 1.72 1.74 1.81
0.35 0.39 0.45 0.36 0.33 0.29 0.28 0.33 0.33 0.36 0.43 0.54 0.72 0.70 0.56 0.57 0.64 0.74 0.78 0.86 0.83 0.81 0.84 0.80 0.76 0.84 0.85 0.84 1.05 1.24 1.30 1.39 1.56 1.72 1.74 1.68 1.61 1.56 1.64 1.70 1.68 1.64 1.68 1.72
0.56 0.57 0.49 0.47 0.47 0.48 0.50 0.62 0.55 0.49 0.49 0.54 0.55 0.64 0.70 0.61 0.55 0.62 0.70 0.89 0.92 0.85 0.91 0.95 0.99 1.03 1.03 1.01 1.19 1.41 1.52 1.55 1.62 1.77 1.83 1.86 1.94 1.98 2.01 1.98 1.84 1.77 1.81 1.87
0.65 0.74 0.73 0.71 0.60 0.54 0.65 1.02 0.92 0.74 0.63 0.61 0.61 0.91 1.07 0.89 0.73 0.71 0.69 0.83 0.99 0.98 0.87 0.94 1.01 1.10 1.27 1.33 1.38 1.45 1.59 1.74 1.78 1.93 2.05 2.03 2.13 2.23 2.30 2.32 2.23 2.21 2.12 2.02
0.75 0.84 0.88 0.81 0.62 0.62 1.12 1.45 1.11 0.94 0.85 0.79 0.86 0.89 0.97 0.87 0.77 0.77 0.72 0.77 0.89 1.08 0.95 0.93 1.04 1.21 1.42 1.52 1.64 1.67 1.72 1.80 1.88 2.07 2.25 2.38 2.53 2.63 2.61 2.58 2.61 2.55 2.33 2.19
0.94 1.14 1.20 0.80 0.77 1.04 1.28 1.14 1.12 1.13 1.18 1.16 1.02 0.83 0.82 0.85 0.76 0.75 0.72 0.73 0.74 0.82 0.89 0.94 1.05 1.33 1.51 1.53 1.57 1.71 1.83 1.95 2.10 2.22 2.26 2.35 2.65 2.73 2.72 2.68 2.58 2.43 2.27 2.07
1.14 1.30 1.09 0.87 0.95 0.99 1.09 1.18 1.22 1.23 1.26 1.17 1.02 0.89 0.88 0.88 0.78 0.71 0.67 0.71 0.76 0.78 0.88 1.01 1.17 1.42 1.71 1.76 1.70 1.70 1.84 2.03 2.21 2.32 2.47 2.62 2.73 2.67 2.59 2.56 2.47 2.34 2.20 2.00
1.29 1.29 1.05 1.00 1.04 1.00 1.06 1.11 1.21 1.15 1.09 1.08 1.03 0.91 0.88 0.84 0.70 0.65 0.68 0.70 0.75 0.82 0.92 1.07 1.28 1.46 1.71 1.67 1.62 1.66 1.68 1.83 1.97 2.03 2.09 2.23 2.40 2.34 2.21 2.20 2.25 2.23 2.17 2.05
1.45 1.45 1.34 1.28 1.29 1.17 1.04 0.99 0.95 0.96 0.96 1.00 1.04 1.00 0.84 0.78 0.71 0.63 0.64 0.67 0.73 0.88 1.08 1.18 1.30 1.39 1.43 1.42 1.47 1.51 1.49 1.55 1.61 1.65 1.74 1.85 1.95 2.01 1.97 1.95 1.90 1.90 1.88 1.87
1.68 1.52 1.45 1.59 1.47 1.34 1.13 1.02 0.95 0.90 0.90 0.94 0.98 1.02 0.85 0.76 0.73 0.65 0.59 0.64 0.75 0.89 1.05 1.19 1.39 1.56 1.58 1.53 1.57 1.62 1.55 1.51 1.49 1.52 1.57 1.59 1.66 1.67 1.65 1.53 1.41 1.31 1.25 1.24
1.38 1.33 1.33 1.37 1.31 1.23 1.15 1.15 1.17 1.12 1.03 0.96 0.96 0.93 0.84 0.78 0.75 0.69 0.67 0.73 0.81 0.84 0.92 1.09 1.27 1.42 1.55 1.68 1.73 1.77 1.67 1.56 1.50 1.43 1.42 1.43 1.47 1.53 1.54 1.40 1.20 1.04 0.93 0.89
1.35 1.30 1.37 1.33 1.28 1.18 1.13 1.17 1.22 1.13 1.09 1.05 1.03 0.94 0.86 0.81 0.81 0.81 0.75 0.80 0.89 0.90 0.91 1.02 1.15 1.26 1.36 1.57 1.73 1.81 1.76 1.64 1.50 1.40 1.34 1.34 1.36 1.38 1.45 1.51 1.39 1.20 0.99 0.83
1.61 1.47 1.40 1.38 1.38 1.32 1.15 1.13 1.15 1.06 0.98 0.99 1.00 0.98 0.92 0.87 0.83 0.82 0.79 0.78 0.87 0.95 0.97 1.06 1.15 1.21 1.33 1.46 1.54 1.56 1.54 1.46 1.36 1.32 1.31 1.29 1.31 1.32 1.31 1.35 1.33 1.26 1.12 0.94
1.60 1.46 1.30 1.28 1.36 1.39 1.29 1.18 1.15 1.10 1.01 0.92 0.91 0.86 0.85 0.82 0.81 0.80 0.77 0.79 0.90 0.97 0.99 1.11 1.20 1.22 1.32 1.47 1.51 1.53 1.51 1.46 1.32 1.27 1.29 1.29 1.27 1.27 1.24 1.29 1.29 1.28 1.18 1.00
1.51 1.48 1.32 1.14 1.17 1.23 1.21 1.13 1.04 1.01 0.99 0.91 0.87 0.84 0.79 0.78 0.82 0.81 0.73 0.72 0.81 0.92 1.00 1.15 1.22 1.22 1.32 1.46 1.56 1.53 1.47 1.40 1.27 1.19 1.19 1.24 1.27 1.25 1.21 1.21 1.21 1.24 1.15 0.94
1.21 1.25 1.22 1.12 1.04 1.04 1.10 1.06 1.00 0.99 0.99 0.89 0.82 0.86 0.87 0.90 0.99 1.03 0.98 0.91 0.93 0.93 0.94 1.05 1.13 1.18 1.28 1.38 1.45 1.48 1.45 1.38 1.23 1.07 1.04 1.09 1.14 1.15 1.15 1.13 1.12 1.14 1.07 0.86
1.08 1.17 1.15 1.08 1.04 0.98 1.08 1.08 1.05 1.04 0.98 0.89 0.83 0.84 0.90 1.02 1.15 1.20 1.19 1.20 1.22 1.18 1.07 1.02 1.10 1.10 1.19 1.29 1.32 1.38 1.34 1.26 1.14 0.96 0.93 1.00 1.05 1.10 1.08 1.02 1.02 1.02 0.92 0.79
1.14 1.18 1.13 1.06 1.09 1.13 1.15 1.12 1.10 1.11 1.00 0.91 0.93 0.95 1.00 1.06 1.20 1.28 1.28 1.24 1.21 1.21 1.13 1.04 1.00 0.99 1.04 1.10 1.14 1.16 1.15 1.15 1.12 0.94 0.89 1.01 1.09 1.15 1.09 0.98 0.96 0.93 0.84 0.82
1.08 1.10 1.04 0.95 0.93 0.94 0.95 0.97 0.99 1.05 1.09 1.06 1.16 1.25 1.26 1.19 1.22 1.36 1.45 1.31 1.08 1.07 1.04 0.99 0.90 0.92 0.93 1.02 1.06 1.06 1.05 1.04 1.08 0.97 0.89 0.97 1.04 1.08 1.04 0.95 0.90 0.83 0.79 0.82
0.98 1.01 1.01 0.96 0.91 0.83 0.76 0.77 0.88 0.99 1.08 1.13 1.18 1.30 1.37 1.37 1.40 1.41 1.33 1.28 1.15 1.10 0.99 0.88 0.79 0.80 0.81 0.85 0.94 0.98 0.97 0.97 1.02 0.99 0.93 0.98 1.05 1.06 1.03 0.95 0.90 0.83 0.79 0.78
0.95 0.96 0.95 0.92 0.97 0.91 0.82 0.81 0.81 0.89 0.96 1.04 1.11 1.29 1.40 1.39 1.47 1.65 1.48 1.16 1.05 1.07 0.98 0.84 0.77 0.76 0.72 0.65 0.77 0.88 0.90 0.94 0.95 0.93 0.90 0.87 0.88 0.90 0.89 0.81 0.77 0.76 0.78 0.79
0.99 0.94 0.97 0.97 0.98 0.90 0.84 0.84 0.86 0.90 0.87 0.89 0.98 1.15 1.34 1.47 1.41 1.32 1.31 1.20 1.04 0.94 0.87 0.83 0.74 0.71 0.71 0.63 0.69 0.78 0.84 0.87 0.83 0.80 0.79 0.77 0.78 0.81 0.79 0.75 0.72 0.73 0.77 0.78
0.99 0.95 0.94 0.99 1.04 1.01 0.95 0.93 0.96 0.96 0.93 0.94 0.93 0.97 1.07 1.26 1.40 1.25 1.05 0.98 0.93 0.82 0.77 0.77 0.70 0.65 0.60 0.57 0.59 0.66 0.73 0.75 0.71 0.69 0.68 0.71 0.74 0.74 0.68 0.65 0.65 0.68 0.72 0.75
0.99 0.98 0.97 0.99 1.01 1.00 1.00 1.08 1.19 1.15 1.15 1.21 1.12 1.05 1.05 1.08 1.16 1.16 1.04 0.91 0.85 0.79 0.71 0.72 0.70 0.66 0.61 0.61 0.60 0.62 0.68 0.75 0.76 0.72 0.67 0.72 0.70 0.67 0.66 0.66 0.62 0.62 0.64 0.65
1.02 0.97 0.97 1.01 1.01 0.98 1.06 1.19 1.32 1.35 1.40 1.46 1.40 1.21 1.11 1.03 1.05 1.07 1.01 0.93 0.88 0.81 0.76 0.74 0.70 0.68 0.65 0.62 0.57 0.56 0.62 0.70 0.73 0.74 0.74 0.76 0.78 0.75 0.70 0.66 0.61 0.58 0.57 0.54